Liberal, Kansas, United States (67901)
Lat: 37.04N, Lon: 100.92W
Wx Zone: KSZ086
Local Info
Past Weather Observations for Tuesday, April 26, 2016

NOTE: This archive is for the closest National Weather Service station to Liberal. Information may differ from the station used for current weather conditions.

Click here for Long-term Archive

Time Weather Temperature Dewpoint Humidity Pressure Winds Precip Visibility
23:55
Clear
46°F / 8°C 37°F / 3°C 71% 29.56 in
(1001 mb)
SW 5.8 mph
(SW 9 kph)
- 10SM
23:35
Clear
46°F / 8°C 37°F / 3°C 71% 29.56 in
(1001 mb)
SW 5.8 mph
(SW 9 kph)
- 10SM
23:15
Clear
45°F / 7°C 37°F / 3°C 76% 29.59 in
(1002 mb)
S 9.2 mph
(S 15 kph)
- 10SM
22:55
Clear
46°F / 8°C 37°F / 3°C 71% 29.59 in
(1002 mb)
S 9.2 mph
(S 15 kph)
- 10SM
22:35
Clear
46°F / 8°C 37°F / 3°C 71% 29.59 in
(1002 mb)
S 8.1 mph
(S 13 kph)
- 10SM
22:15
Clear
48°F / 9°C 37°F / 3°C 66% 29.59 in
(1002 mb)
SSE 8.1 mph
(SSE 13 kph)
- 10SM
21:55
Clear
48°F / 9°C 37°F / 3°C 66% 29.59 in
(1002 mb)
S 6.9 mph
(S 11 kph)
- 10SM
21:35
Clear
48°F / 9°C 37°F / 3°C 66% 29.59 in
(1002 mb)
S 5.8 mph
(S 9 kph)
- 10SM
21:15
Clear
52°F / 11°C 39°F / 4°C 62% 29.59 in
(1002 mb)
SW 5.8 mph
(SW 9 kph)
- 10SM
20:55
Clear
52°F / 11°C 39°F / 4°C 62% 29.59 in
(1002 mb)
SE 3.5 mph
(SE 6 kph)
- 10SM
20:35
Clear
52°F / 11°C 39°F / 4°C 62% 29.62 in
(1003 mb)
SE 4.6 mph
(SE 7 kph)
- 10SM
20:15
Clear
54°F / 12°C 41°F / 5°C 63% 29.59 in
(1002 mb)
ESE 5.8 mph
(ESE 9 kph)
- 10SM
19:55
Clear
55°F / 13°C 43°F / 6°C 63% 29.59 in
(1002 mb)
E 3.5 mph
(E 6 kph)
- 10SM
19:35
Clear
55°F / 13°C 43°F / 6°C 63% 29.59 in
(1002 mb)
E 3.5 mph
(E 6 kph)
- 10SM
19:15
Clear
57°F / 14°C 43°F / 6°C 59% 29.59 in
(1002 mb)
ENE 5.8 mph
(ENE 9 kph)
- 10SM
18:55
Clear
57°F / 14°C 43°F / 6°C 59% 29.59 in
(1002 mb)
N 5.8 mph
(N 9 kph)
- 10SM
18:35
Clear
57°F / 14°C 43°F / 6°C 59% 29.59 in
(1002 mb)
NNW 5.8 mph
(NNW 9 kph)
- 10SM
18:15
Clear
59°F / 15°C 43°F / 6°C 55% 29.59 in
(1002 mb)
NW 5.8 mph
(NW 9 kph)
- 10SM
17:55
Clear
61°F / 16°C 43°F / 6°C 52% 29.59 in
(1002 mb)
SSW 4.6 mph
(SSW 7 kph)
0.02 in
(0.51 mm)
10SM
17:35
Partly Cloudy
59°F / 15°C 41°F / 5°C 51% 29.59 in
(1002 mb)
SSW 10.4 mph
(SSW 17 kph)
0.02 in
(0.51 mm)
10SM
17:15
Overcast
57°F / 14°C 39°F / 4°C 51% 29.65 in
(1004 mb)
SSE 6.9 mph
(SSE 11 kph)
0.02 in
(0.51 mm)
10SM
16:55
Overcast
57°F / 14°C 36°F / 2°C 44% 29.68 in
(1005 mb)
SW 10.4 mph
(SW 17 kph)
- 10SM
16:35
Mostly Cloudy
59°F / 15°C 34°F / 1°C 39% 29.71 in
(1006 mb)
SSW 25.3 mph
(SSW 41 kph)
- 10SM
16:15
Clear
63°F / 17°C 34°F / 1°C 34% 29.68 in
(1005 mb)
SW 27.6 mph
(SW 44 kph)
- 10SM
15:55
Mostly Cloudy
63°F / 17°C 34°F / 1°C 34% 29.65 in
(1004 mb)
SSW 35.7 mph
(SSW 57 kph)
- 9SM
15:35
Mostly Cloudy
66°F / 19°C 28°F / -2°C 24% 29.65 in
(1004 mb)
SSW 33.4 mph
(SSW 54 kph)
- 10SM
15:15
Clear
73°F / 23°C 30°F / -1°C 20% 29.59 in
(1002 mb)
SW 5.8 mph
(SW 9 kph)
- 10SM
14:55
Clear
75°F / 24°C 30°F / -1°C 19% 29.62 in
(1003 mb)
SW 6.9 mph
(SW 11 kph)
- 10SM
14:35
Clear
75°F / 24°C 30°F / -1°C 19% 29.59 in
(1002 mb)
SE 6.9 mph
(SE 11 kph)
- 10SM
14:15
Clear
75°F / 24°C 32°F / 0°C 21% 29.62 in
(1003 mb)
SW 5.8 mph
(SW 9 kph)
- 10SM
13:55
Clear
75°F / 24°C 28°F / -2°C 18% 29.62 in
(1003 mb)
S 5.8 mph
(S 9 kph)
- 10SM
13:35
Clear
75°F / 24°C 30°F / -1°C 19% 29.62 in
(1003 mb)
ESE 3.5 mph
(ESE 6 kph)
- 10SM
13:15
Clear
73°F / 23°C 28°F / -2°C 19% 29.62 in
(1003 mb)
NW 4.6 mph
(NW 7 kph)
- 10SM
12:55
Clear
72°F / 22°C 28°F / -2°C 20% 29.65 in
(1004 mb)
Calm - 10SM
12:35
Clear
72°F / 22°C 28°F / -2°C 20% 29.65 in
(1004 mb)
SSE 3.5 mph
(SSE 6 kph)
- 10SM
12:15
Clear
72°F / 22°C 28°F / -2°C 20% 29.68 in
(1005 mb)
SSW 4.6 mph
(SSW 7 kph)
- 10SM
11:55
Partly Cloudy
72°F / 22°C 28°F / -2°C 20% 29.68 in
(1005 mb)
WNW 8.1 mph
(WNW 13 kph)
- 10SM
11:35
Clear
72°F / 22°C 28°F / -2°C 20% 29.68 in
(1005 mb)
W 9.2 mph
(W 15 kph)
- 10SM
11:15
Clear
72°F / 22°C 28°F / -2°C 20% 29.68 in
(1005 mb)
WNW 8.1 mph
(WNW 13 kph)
- 10SM
10:55
Clear
70°F / 21°C 28°F / -2°C 21% 29.68 in
(1005 mb)
WNW 11.5 mph
(WNW 19 kph)
- 10SM
10:35
Clear
70°F / 21°C 28°F / -2°C 21% 29.68 in
(1005 mb)
NW 11.5 mph
(NW 19 kph)
- 10SM
10:15
Clear
70°F / 21°C 28°F / -2°C 21% 29.68 in
(1005 mb)
NW 11.5 mph
(NW 19 kph)
- 10SM
09:55
Clear
68°F / 20°C 30°F / -1°C 24% 29.68 in
(1005 mb)
NW 10.4 mph
(NW 17 kph)
- 10SM
09:35
Clear
66°F / 19°C 34°F / 1°C 30% 29.68 in
(1005 mb)
NW 8.1 mph
(NW 13 kph)
- 10SM
09:15
Clear
64°F / 18°C 34°F / 1°C 32% 29.68 in
(1005 mb)
NNW 11.5 mph
(NNW 19 kph)
- 10SM
08:55
Clear
64°F / 18°C 34°F / 1°C 32% 29.68 in
(1005 mb)
NNW 11.5 mph
(NNW 19 kph)
- 10SM
08:35
Clear
61°F / 16°C 34°F / 1°C 36% 29.68 in
(1005 mb)
NNW 10.4 mph
(NNW 17 kph)
- 10SM
08:15
Clear
61°F / 16°C 34°F / 1°C 36% 29.68 in
(1005 mb)
NW 10.4 mph
(NW 17 kph)
- 10SM
07:55
Clear
59°F / 15°C 36°F / 2°C 42% 29.65 in
(1004 mb)
NW 12.7 mph
(NW 20 kph)
- 10SM
07:35
Clear
55°F / 13°C 36°F / 2°C 47% 29.68 in
(1005 mb)
NW 12.7 mph
(NW 20 kph)
- 10SM
07:15
Clear
54°F / 12°C 37°F / 3°C 54% 29.68 in
(1005 mb)
NW 10.4 mph
(NW 17 kph)
- 10SM
06:55
Clear
48°F / 9°C 36°F / 2°C 62% 29.68 in
(1005 mb)
NW 6.9 mph
(NW 11 kph)
- 10SM
06:35
Clear
48°F / 9°C 36°F / 2°C 62% 29.65 in
(1004 mb)
W 6.9 mph
(W 11 kph)
- 10SM
06:15
Clear
50°F / 10°C 36°F / 2°C 58% 29.65 in
(1004 mb)
W 8.1 mph
(W 13 kph)
- 10SM
05:55
Clear
50°F / 10°C 36°F / 2°C 58% 29.65 in
(1004 mb)
WNW 8.1 mph
(WNW 13 kph)
- 10SM
05:35
Clear
54°F / 12°C 36°F / 2°C 51% 29.65 in
(1004 mb)
W 8.1 mph
(W 13 kph)
- 10SM
05:15
Clear
54°F / 12°C 37°F / 3°C 54% 29.65 in
(1004 mb)
WNW 9.2 mph
(WNW 15 kph)
- 10SM
04:55
Clear
52°F / 11°C 36°F / 2°C 54% 29.65 in
(1004 mb)
W 9.2 mph
(W 15 kph)
- 10SM
04:35
Clear
52°F / 11°C 37°F / 3°C 58% 29.62 in
(1003 mb)
W 11.5 mph
(W 19 kph)
- 10SM
04:15
Clear
52°F / 11°C 37°F / 3°C 58% 29.62 in
(1003 mb)
W 8.1 mph
(W 13 kph)
- 10SM
03:55
Clear
52°F / 11°C 37°F / 3°C 58% 29.59 in
(1002 mb)
SW 9.2 mph
(SW 15 kph)
- 10SM
03:35
Clear
55°F / 13°C 39°F / 4°C 55% 29.59 in
(1002 mb)
S 13.8 mph
(S 22 kph)
- 10SM
03:15
Clear
54°F / 12°C 39°F / 4°C 58% 29.56 in
(1001 mb)
SSE 12.7 mph
(SSE 20 kph)
- 10SM
02:55
Clear
54°F / 12°C 39°F / 4°C 58% 29.56 in
(1001 mb)
SW 12.7 mph
(SW 20 kph)
- 10SM
02:35
Clear
52°F / 11°C 39°F / 4°C 62% 29.56 in
(1001 mb)
SSE 12.7 mph
(SSE 20 kph)
- 10SM
02:15
Clear
52°F / 11°C 39°F / 4°C 62% 29.56 in
(1001 mb)
SSE 9.2 mph
(SSE 15 kph)
- 10SM
01:55
Clear
52°F / 11°C 39°F / 4°C 62% 29.56 in
(1001 mb)
SW 5.8 mph
(SW 9 kph)
- 10SM
01:35
Clear
52°F / 11°C 41°F / 5°C 67% 29.56 in
(1001 mb)
SW 5.8 mph
(SW 9 kph)
- 10SM
01:15
Clear
54°F / 12°C 43°F / 6°C 67% 29.56 in
(1001 mb)
S 6.9 mph
(S 11 kph)
- 10SM
00:55
Clear
57°F / 14°C 45°F / 7°C 63% 29.56 in
(1001 mb)
SSE 6.9 mph
(SSE 11 kph)
- 10SM
00:35
Clear
59°F / 15°C 46°F / 8°C 63% 29.56 in
(1001 mb)
SSE 5.8 mph
(SSE 9 kph)
- 10SM
00:15
Clear
61°F / 16°C 48°F / 9°C 63% 29.56 in
(1001 mb)
SE 8.1 mph
(SE 13 kph)
- 10SM
Time Weather Temperature Dewpoint Humidity Pressure Winds Precip Visibility


Weather for websites

WeatherForYou.com, LLC is not responsible for any damages or problems caused by this service. Current weather conditions are obtained from the closest station including government and personal stations which may have varying degrees of accuracy. Weather forecasts are derived from the NOAA NDFD. Like all things, this site belongs to Jesus Christ... He just trusts us to maintain it. If you have any questions or comments email webmaster@weatherforyou.com

Copyright © 2016, WeatherForYou.com LLC. All rights reserved.